Weather History for V.C. Bird, Antigua

Change the Weather History Date:

Thursday, November 22, 2012

  Actual Average Record
Temperature  
Mean Temperature 79 °F -  
Max Temperature 88 °F 82 °F 89 °F (1997)
Min Temperature 70 °F 73 °F 70 °F (2012)
Cooling Degree Days 14    
Growing Degree Days 29 (Base 50)    
Moisture  
Dew Point 71 °F    
Average Humidity 78    
Maximum Humidity 94    
Minimum Humidity 47    
Precipitation  
Precipitation 0.00 in - - ()
Sea Level Pressure  
Sea Level Pressure 29.89 in    
Wind  
Wind Speed 3 mph ()    
Max Wind Speed 12 mph    
Max Gust Speed -    
Visibility 9.3 miles    
Events      
Averages and records for this station are not official NWS values.
T = Trace of Precipitation, MM = Missing Value Source: Averaged Metar Reports

Daily Weather History Graph

Daily Weather History Graph

Search for Another Location

Airport:

Trip Planner

Search our weather history database for the weather conditions in past years. The results will help you decide how hot, cold, wet, or windy it might be!

Date:

Astronomy

Nov. 22, 2012 Rise Set
Actual Time 6:15 AM AST 5:30 PM AST
Civil Twilight 5:52 AM AST 5:54 PM AST
Nautical Twilight 5:26 AM AST 6:20 PM AST
Astronomical Twilight 4:59 AM AST 6:46 PM AST
Moon 1:34 PM AST (11/22) 1:15 AM AST (11/22)
Length of Visible Light 12h 01m
Length of Day
11h 15m
Waxing Gibbous, 71% of the Moon is Illuminated
Nov 22
Waxing Gibbous
Nov 28
Full
Dec 6
Last Quarter
Dec 13
New
Dec 20
First Quarter

Hourly Weather History & Observations

Time (AST) Temp. Heat Index Dew Point Humidity Pressure Visibility Wind Dir Wind Speed Gust Speed Precip Events Conditions
12:00 AM 75.2 °F - 69.8 °F 83% 29.86 in 6.2 mi Variable 2.3 mph - N/A   Partly Cloudy
1:00 AM 73.4 °F - 69.8 °F 88% 29.86 in 6.2 mi Variable 1.2 mph - N/A   Partly Cloudy
2:00 AM 73 °F - 69 °F 85% 29.86 in 19 mi Calm Calm - -   Scattered Clouds
2:00 AM 73.4 °F - 69.8 °F 88% 29.86 in 6.2 mi Calm Calm - N/A   Partly Cloudy
3:00 AM 73.4 °F - 69.8 °F 88% 29.86 in 6.2 mi Calm Calm - N/A   Partly Cloudy
4:00 AM 71.6 °F - 69.8 °F 94% 29.86 in - Calm Calm - N/A   Clear
5:00 AM 72 °F - 69 °F 87% 29.86 in 19 mi Calm Calm - -   Clear
5:00 AM 71.6 °F - 69.8 °F 94% 29.86 in - Calm Calm - N/A   Clear
6:00 AM 71.6 °F - 69.8 °F 94% 29.86 in 6.2 mi Calm Calm - N/A   Partly Cloudy
7:00 AM 73.4 °F - 69.8 °F 88% 29.89 in 6.2 mi Variable 2.3 mph - N/A   Partly Cloudy
8:00 AM 80 °F - 73 °F 73% 29.93 in 19 mi SSW 3.5 mph - -   Scattered Clouds
8:00 AM 80.6 °F 85.4 °F 73.4 °F 79% 29.92 in 6.2 mi SSW 3.5 mph - N/A   Partly Cloudy
9:00 AM 82.4 °F 87.2 °F 71.6 °F 70% 29.92 in 6.2 mi South 5.8 mph - N/A   Partly Cloudy
10:00 AM 86.0 °F 91.8 °F 71.6 °F 62% 29.92 in 6.2 mi South 8.1 mph - N/A   Partly Cloudy
11:00 AM 87 °F - 69 °F 47% 29.94 in 19 mi South 8.1 mph - -   Scattered Clouds
11:00 AM 86.0 °F 90.4 °F 69.8 °F 58% 29.92 in 6.2 mi South 8.1 mph - N/A   Partly Cloudy
12:00 PM 86.0 °F 90.4 °F 69.8 °F 58% 29.92 in 6.2 mi SSE 9.2 mph - N/A   Partly Cloudy
1:00 PM 86.0 °F 90.4 °F 69.8 °F 58% 29.89 in 6.2 mi SSE 9.2 mph - N/A   Partly Cloudy
2:00 PM 87.8 °F 92.6 °F 69.8 °F 55% 29.86 in 6.2 mi SSE 9.2 mph - N/A   Partly Cloudy
3:00 PM 84.2 °F 90.9 °F 73.4 °F 70% 29.86 in 6.2 mi SE 10.4 mph - N/A   Scattered Clouds
4:00 PM 82.4 °F 88.2 °F 73.4 °F 74% 29.86 in 6.2 mi ESE 11.5 mph - N/A   Scattered Clouds
5:00 PM 82 °F - 73 °F 68% 29.89 in 19 mi ESE 4.6 mph - -   Partly Cloudy
5:00 PM 82.4 °F 88.2 °F 73.4 °F 74% 29.89 in 6.2 mi ESE 4.6 mph - N/A   Scattered Clouds
6:00 PM 80.6 °F 85.4 °F 73.4 °F 79% 29.89 in 6.2 mi ESE 4.6 mph - N/A   Scattered Clouds
7:00 PM 78.8 °F - 73.4 °F 83% 29.89 in 6.2 mi Variable 1.2 mph - N/A   Scattered Clouds
8:00 PM 78 °F - 73 °F 81% 29.92 in 19 mi Calm Calm - -   Scattered Clouds
8:00 PM 78.8 °F - 73.4 °F 83% 29.92 in 6.2 mi Calm Calm - N/A   Partly Cloudy
9:00 PM 77.0 °F - 73.4 °F 89% 29.92 in 6.2 mi Calm Calm - N/A   Partly Cloudy
10:00 PM 77.0 °F - 73.4 °F 89% 29.92 in 6.2 mi Calm Calm - N/A   Partly Cloudy
11:00 PM 77 °F - 74 °F 87% 29.93 in 19 mi South 3.5 mph - -   Scattered Clouds
11:00 PM 77.0 °F - 73.4 °F 89% 29.92 in 6.2 mi South 3.5 mph - N/A   Partly Cloudy